Content
SEND FEEDBACK

Daily
Averages
Monthly
Summary
Ecuador

PORTO VIEJO, ECUADOR


Home > South America > Ecuador
Elevation: 144 feet     Latitude: 01 01N     Longitude: 080 25W

WEATHER
 
SELECT A DAY
Number of Records: 124,011;   Date Range: 6/30/96 - 4/21/13
 
SHARE

PRINT THIS DATA

[ ← Previous Day ]
WEATHER ALMANAC - JANUARY 31, 2013
[ Next Day → ]
[ °C ]   °F
Weather ElementAverageHighLow
Temperature78.5 °F86 °F (1:00 pm)73.4 °F (4:00 am)
Dewpoint72.7 °F77 °F (12:00 pm)68 °F (7:00 pm)
Humidity81.8 %94 % (4:00 am)59 % (7:00 pm)
Barometer29.82 in29.89 in (11:00 pm)29.74 in (5:00 pm)
Wind Speed5.7 mph9.2 mph (4:00 pm)
Weather ElementAverage
Visibility6.1 mi
Wind DirectionSSE (151.9 °)

Weather ElementTotal
Precipitation---
Cooling Degree Days14.7 (Base 65)
Growing Degree Days29.7 (Base 50)
Averaged from 26 records on January 31, 2013
WEATHER CONDITIONS BREAKOUT
WIND DIRECTION BREAKOUT
WEATHER BY HOUR - JANUARY 31, 2013
[ °C ]   °F
Local TimeTemperatureDewpointHumidityBarometerVisibilityWind DirectionWind SpeedGust SpeedPrecipitationEventsConditions
1:00 AM75.2 °F69.8 °F83 %29.83 in6.2 miEast (100°)6.9 mphMostly Cloudy
2:00 AM75.2 °F69.8 °F83 %29.80 in6.2 miEast (90°)6.9 mphMostly Cloudy
3:00 AM75.2 °F69.8 °F83 %29.80 in6.2 miEast (100°)5.8 mphMostly Cloudy
4:00 AM73.4 °F71.6 °F94 %29.80 in6.2 miEast (90°)5.8 mphRainLight Rain
5:00 AM73.4 °F71.6 °F94 %29.80 in6.2 miEast (100°)4.6 mphRainLight Rain
6:00 AM73.4 °F71.6 °F94 %29.80 in6.2 miEast (90°)2.3 mphOvercast
7:00 AM74.0 °F71.0 °F88 %29.84 in5.0 miSE (130°)4.6 mphOvercast
8:00 AM73.4 °F71.6 °F94 %29.83 in6.2 miESE (120°)5.8 mphMostly Cloudy
9:00 AM77.0 °F71.6 °F83 %29.86 in6.2 miESE (120°)4.6 mphMostly Cloudy
10:00 AM78.0 °F72.0 °F75 %29.88 in6.0 miEast (90°)3.5 mphHaze
10:00 AM78.8 °F71.6 °F78 %29.86 in6.2 miEast (90°)3.5 mphMostly Cloudy
11:00 AM82.4 °F75.2 °F79 %29.86 in6.2 miEast (100°)2.3 mphMostly Cloudy
12:00 PM82.4 °F77.0 °F84 %29.83 in6.2 miNE (50°)5.8 mphMostly Cloudy
1:00 PM86.0 °F73.4 °F66 %29.80 in6.2 miNorth (10°)4.6 mphMostly Cloudy
2:00 PM84.2 °F73.4 °F70 %29.80 in6.2 miWNW (290°)5.8 mphMostly Cloudy
3:00 PM84.2 °F73.4 °F70 %29.77 in6.2 miWest (280°)8.1 mphMostly Cloudy
4:00 PM82.0 °F76.0 °F76 %29.78 in6.0 miWest (270°)9.2 mphHaze
4:00 PM82.4 °F75.2 °F79 %29.77 in6.2 miWest (270°)9.2 mphMostly Cloudy
5:00 PM80.6 °F75.2 °F84 %29.74 in6.2 miWest (260°)5.8 mphMostly Cloudy
6:00 PM80.6 °F75.2 °F84 %29.77 in6.2 miWest (260°)6.9 mphMostly Cloudy
7:00 PM80.6 °F73.4 °F79 %29.77 in6.2 miWSW (250°)5.8 mphMostly Cloudy
7:00 PM80.0 °F68.0 °F59 %29.82 in6.0 miSW (220°)8.1 mphHaze
8:00 PM78.8 °F73.4 °F83 %29.80 in6.2 miSouth (180°)5.8 mphMostly Cloudy
9:00 PM78.8 °F73.4 °F83 %29.83 in6.2 miSouth (190°)6.9 mphMostly Cloudy
10:00 PM77.0 °F73.4 °F89 %29.86 in6.2 miSouth (190°)5.8 mphMostly Cloudy
11:00 PM73.4 °F71.6 °F94 %29.89 in6.2 miNorth (10°)4.6 mphOvercast
Hourly data recorded from SEPV, located miles away from Porto Viejo, Ecuador







STORIES FROM OUR PARTNERS